130P/McNaught-Hughes (2024)

Japanese version
Home page
Updated on March 15, 2022

---------------------------------------------------------------------

* Profile

* Orbital Elements

Epoch 2022 Jan. 21.0 TT = JDT 2459600.5                                         
T 2024 Apr. 14.53419 TT                                 Rudenko                 
q   1.8227113            (2000.0)            P               Q                  
n   0.15835384     Peri.  246.05255     +0.71765507     +0.68927249             
a   3.3836361      Node    70.20575     -0.59437329     +0.68060490             
e   0.4613158      Incl.    6.06238     -0.36289336     +0.24835541             
P   6.22                                                                        
From 1174 observations 1991 Sept. 14-2022 Mar. 7, mean residual 0".7.           
     Nongravitational parameters A1 = +0.05, A2 = -0.0004.                      

* Finding Charts

* Magnitudes Graph

        m1 = 10.0 + 5 log d + 15.0 log r(t - 70)

---------------------------------------------------------------------

The orbital elements are published on M.P.E.C. 2022-E133.
The charts are made with StellaNavigator Ver.10 (AstroArts).
The magnitudes graphs are made with Comet for Windows.

---------------------------------------------------------------------

Copyright(C) Seiichi Yoshida (comet@aerith.net). All rights reserved.